RH
41 38 34 42 55 60 49 49 48 52 55 56 55 56 56 55 48 51 55 50 42 41 45 47 50 52 50 47 44 44 46 46 44 38 23 9 6 7 9 21 20 17 17
38 47 50 50 44 46 48 51 51 50 48 47 45 41 42 37 33 33 38 42 42 40 38 44 44 48 52 52 52 51 48 46 46 48 49 42 25 10 6 6 7 11 12
39 48 49 51 47 47 50 48 50 44 32 23 19 17 16 17 25 32 40 46 47 49 50 45 48 46 43 45 46 46 48 50 50 48 46 48 48 44 26 11 7 7 7
48 49 44 48 52 57 54 51 28 18 15 13 12 12 12 12 13 15 16 18 18 19 18 19 26 33 39 40 42 42 46 47 46 47 48 48 48 49 52 46 37 31 14
25 23 31 56 67 39 22 16 14 12 11 11 11 11 12 14 15 15 13 10 7 6 6 7 10 14 15 23 30 36 38 44 52 53 49 48 50 48 48 51 53 64 81
12 22 34 40 22 16 15 14 12 11 11 12 12 13 14 14 11 7 4 4 4 4 4 4 5 5 5 6 6 8 11 35 39 50 55 54 54 55 56 55 53 56 64
13 14 17 18 17 14 13 12 12 12 12 12 14 14 11 7 4 4 4 4 4 5 5 6 6 6 6 6 6 6 6 7 7 17 27 33 47 56 58 61 59 56 57
15 15 15 15 14 13 12 12 13 12 12 14 13 8 4 4 4 4 5 5 6 6 6 6 6 7 7 8 8 8 8 8 8 7 8 12 18 34 49 60 67 64 60
17 15 14 13 12 12 12 13 12 12 14 11 8 5 4 4 5 5 6 6 6 6 6 7 8 9 10 11 12 12 13 12 12 11 10 9 11 15 18 32 48 63 64
19 17 13 12 11 12 12 12 12 13 12 10 6 4 4 5 5 5 5 5 5 6 8 10 12 13 13 13 13 13 13 14 14 15 15 15 20 21 14 17 41 52 53
21 15 13 12 11 12 12 12 13 13 12 10 7 5 4 5 5 5 5 5 6 8 10 12 13 12 10 9 8 8 8 9 9 10 10 11 14 50 47 20 32 44 53
22 16 14 12 11 12 12 12 13 14 13 10 8 6 5 5 5 5 5 6 7 9 12 13 12 10 9 9 9 8 7 6 6 6 6 6 9 12 12 13 14 22 34
24 18 14 12 12 12 12 13 14 14 12 10 8 6 6 5 5 5 5 6 9 13 14 12 9 8 9 9 8 7 6 6 5 5 5 4 5 5 5 8 12 14 16
27 19 15 13 12 12 13 13 14 13 12 10 8 7 6 5 5 5 8 12 15 14 10 7 8 8 8 8 6 4 4 3 4 4 4 3 4 4 5 5 5 7 12
29 20 16 13 13 13 13 13 13 13 12 10 8 7 6 5 6 9 14 15 13 8 8 9 9 7 5 3 3 2 2 2 2 2 2 2 2 3 3 4 5 6 7
30 21 17 14 14 13 13 13 13 13 12 10 7 6 5 7 12 16 15 11 8 9 11 9 5 3 2 2 2 2 2 2 3 3 3 2 3 4 4 4 4 5 6
30 21 16 14 14 13 13 13 13 13 10 8 6 6 8 14 16 12 9 8 8 10 10 5 3 2 2 2 3 3 3 3 4 4 5 5 4 7 7 8 8 9 11
26 20 16 15 14 14 14 13 14 12 10 7 6 10 15 14 10 8 8 9 11 12 6 3 3 2 2 3 3 3 3 3 3 4 4 4 5 7 8 9 10 12 14
23 19 16 15 14 14 13 13 14 11 8 6 12 16 12 9 9 10 13 13 11 5 4 3 2 2 2 3 4 4 4 4 4 4 4 4 4 4 6 8 11 13 15
22 18 16 15 14 14 13 14 12 9 7 12 16 11 9 10 12 12 9 5 4 4 4 4 3 3 2 2 3 4 5 5 5 5 4 4 4 4 4 4 4 5 6
22 18 16 15 15 14 15 13 10 7 12 17 11 9 10 9 6 5 4 4 5 6 8 9 10 8 6 5 4 4 3 5 5 6 6 6 5 5 5 4 4 4 5
22 19 17 16 15 15 15 12 9 10 18 12 9 8 6 5 5 5 6 7 9 11 15 20 26 27 21 16 11 8 7 6 4 4 6 7 7 6 6 6 6 6 5
20 18 17 15 16 15 14 13 11 20 15 11 9 7 6 6 6 7 8 10 16 24 30 33 34 33 31 28 23 18 14 12 11 10 8 8 8 8 7 7 7 8 7
19 17 16 16 14 14 15 12 19 19 14 12 10 8 7 8 9 10 15 23 31 33 34 34 33 33 32 30 29 26 23 20 18 16 16 14 12 12 12 11 11 11 12
17 16 15 14 14 15 14 18 23 17 16 15 13 10 9 10 12 17 25 31 35 36 36 36 36 36 36 35 34 33 32 30 27 25 23 22 20 21 16 17 17 16 16
17 16 14 14 15 14 19 24 20 20 18 17 17 12 10 11 14 25 33 37 40 40 39 38 38 38 37 37 38 37 36 36 34 32 30 29 27 26 25 22 24 23 21
Wind_Speed
10 8 7 6 5 4 2 2 3 3 5 6 7 7 8 8 9 8 8 8 8 9 9 9 10 10 10 10 10 10 10 9 8 8 8 9 9 9 9 9 9 9 10
11 9 7 6 5 3 1 1 2 4 5 6 7 7 8 9 9 9 9 10 10 10 9 9 9 10 10 11 11 10 10 10 11 11 10 9 9 9 9 10 11 12 11
12 9 8 6 6 4 2 2 3 4 5 6 7 8 9 9 9 9 9 10 11 11 11 11 11 11 11 11 12 13 13 12 12 12 13 12 11 11 11 10 11 11 12
13 11 9 7 6 4 3 2 3 4 5 6 7 8 9 10 10 11 12 12 12 13 12 12 12 12 12 13 13 13 14 14 13 13 13 14 14 13 12 11 11 10 9
10 8 8 7 7 5 2 1 2 4 6 7 7 9 10 10 11 12 13 13 12 12 12 11 11 11 11 12 13 14 14 15 15 14 14 14 14 14 14 14 13 12 12
7 9 10 9 6 4 2 2 3 5 6 8 9 10 11 12 12 12 11 11 11 11 11 12 13 13 13 14 14 15 15 16 14 15 15 15 15 15 14 14 14 13 13
10 9 9 8 5 3 2 3 4 6 8 9 11 12 13 12 11 10 10 10 11 12 12 13 15 15 17 17 17 17 18 19 18 17 18 18 17 17 16 16 16 15 15
9 11 8 7 5 3 3 4 6 8 9 11 12 12 11 10 10 11 11 12 13 14 16 17 18 19 19 20 21 21 22 22 21 21 21 21 20 19 19 18 19 18 17
10 10 8 7 5 3 3 5 7 8 10 12 12 11 11 10 11 11 13 15 16 17 19 20 21 22 23 24 24 25 25 25 25 25 24 23 24 21 21 21 20 21 20
12 10 8 7 5 4 5 6 8 9 11 12 12 11 11 11 13 15 16 18 19 20 21 23 24 25 25 25 25 24 24 25 26 26 27 27 26 23 24 22 22 22 22
13 11 9 8 6 5 6 7 8 10 12 13 13 12 12 13 15 16 17 19 21 23 23 24 24 23 23 23 23 23 23 23 24 25 26 27 27 23 25 25 24 26 26
14 11 10 9 7 7 8 8 10 11 13 14 14 13 14 15 16 18 20 22 23 25 25 25 25 24 23 24 24 23 23 24 24 24 27 28 26 28 29 29 29 28 28
14 13 11 9 8 8 8 9 11 13 15 15 15 15 16 17 18 20 23 24 26 27 27 25 25 24 24 24 25 25 25 25 26 26 29 28 29 28 29 29 30 31 31
16 14 11 10 9 9 9 10 12 14 16 16 16 17 18 20 22 24 26 28 28 27 25 25 25 26 26 27 27 28 28 29 29 29 32 31 30 31 30 29 31 31 31
17 13 12 10 10 10 10 11 14 16 17 17 18 18 20 22 24 27 28 28 26 25 26 26 26 26 27 27 28 28 27 26 24 25 27 27 26 28 28 28 30 30 31
16 14 12 11 11 11 11 13 15 17 19 19 19 20 22 25 26 27 26 26 26 26 26 27 27 27 27 25 23 23 21 20 18 18 19 22 19 21 23 24 25 26 27
17 15 14 12 12 12 13 15 17 19 20 20 20 21 24 26 25 25 25 25 26 26 27 28 28 27 24 21 20 19 18 18 18 18 18 22 17 20 21 22 23 24 24
18 16 14 14 13 13 14 16 19 21 21 21 21 24 25 24 24 24 25 26 26 26 26 27 28 25 22 20 19 18 17 17 17 18 19 20 21 19 21 22 23 23 24
19 16 15 15 14 15 16 18 21 21 21 21 23 23 22 23 24 24 25 25 26 26 27 26 26 24 22 20 20 19 18 17 17 18 19 18 20 20 20 20 21 22 23
18 16 16 16 16 16 18 20 22 22 22 23 22 22 23 24 24 24 25 25 26 25 25 25 24 24 22 20 19 20 20 19 18 19 20 20 20 21 22 22 22 23 23
17 17 17 17 17 18 20 21 22 23 23 22 21 23 23 24 24 25 26 25 24 24 23 24 23 23 22 23 21 21 21 19 21 21 22 23 22 22 23 24 24 25 25
19 18 18 19 19 20 21 23 24 24 23 20 21 22 23 24 25 25 25 24 24 24 24 24 24 24 24 23 23 23 23 27 23 20 23 24 24 24 23 25 25 26 27
19 20 21 21 21 21 23 25 25 24 20 20 20 22 23 25 25 24 24 24 24 24 24 23 23 24 23 23 23 23 24 23 25 27 24 25 25 26 25 25 26 27 28
21 22 23 22 23 25 26 26 24 20 19 20 21 23 24 24 24 24 23 23 23 23 23 23 23 24 24 24 24 24 24 25 25 25 28 30 26 25 26 27 27 27 28
23 22 23 25 27 28 27 24 22 20 19 21 22 23 23 23 23 23 23 23 24 24 24 24 24 24 25 25 25 26 26 26 27 27 26 27 28 31 28 27 28 28 28
23 26 28 29 29 28 26 23 21 20 20 22 24 24 25 26 25 24 23 23 24 25 26 26 26 26 26 26 27 27 27 27 28 28 28 28 29 30 32 29 30 29 29
Wind_Direction
190 177 175 166 151 129 80 36 29 8 4 1 359 356 357 356 358 358 357 356 355 355 354 355 356 356 359 1 2 1 357 355 356 351 344 338 328 313 295 282 274 273 275
191 185 193 191 186 184 205 327 348 345 339 333 334 336 335 336 337 338 337 337 336 335 336 337 336 334 337 339 340 340 341 340 340 341 339 334 332 327 320 306 291 281 275
194 195 202 209 207 212 231 274 315 317 314 320 326 330 331 331 333 333 334 333 331 330 329 327 323 320 319 318 320 322 323 324 325 327 327 327 328 330 330 324 313 299 285
194 203 208 203 203 197 213 225 283 306 319 326 329 329 333 331 328 328 324 323 322 321 320 319 316 314 311 309 307 307 308 309 310 311 313 316 320 325 324 322 320 314 304
195 187 184 178 181 195 198 233 299 312 321 328 328 328 327 325 325 326 322 323 325 325 324 324 323 318 312 308 305 304 303 301 301 301 302 304 306 309 312 314 314 311 300
171 173 170 181 188 191 212 265 307 321 325 325 327 325 324 324 325 327 327 331 334 331 328 324 322 319 316 314 309 307 304 298 297 295 295 295 294 297 297 297 298 300 300
173 177 181 183 190 210 251 301 321 323 325 327 326 326 327 329 331 331 331 328 325 321 318 316 314 313 311 309 306 302 299 301 301 296 293 290 286 288 287 288 287 287 288
190 178 190 192 199 226 281 311 319 322 327 327 328 328 328 332 331 325 325 319 317 315 315 314 312 308 305 301 300 298 297 297 295 293 292 290 286 283 281 282 282 283 284
200 183 194 206 215 251 288 307 316 322 327 328 325 325 324 324 319 317 318 317 317 317 315 312 308 305 302 300 297 296 294 293 291 290 287 284 284 281 278 275 274 276 277
199 194 196 219 232 261 292 306 313 324 326 323 322 321 319 319 317 319 321 318 317 314 312 312 311 309 306 303 300 297 293 291 288 287 286 285 282 281 275 276 272 272 273
201 197 199 227 244 270 290 300 314 323 325 325 321 318 318 315 316 319 316 314 312 313 316 315 311 309 306 303 301 299 295 292 290 289 286 281 281 280 281 276 270 271 271
202 200 209 230 250 274 290 304 317 323 326 324 320 318 315 314 315 314 312 313 315 316 315 313 310 308 307 304 303 299 296 294 290 286 282 284 280 276 276 276 273 268 267
205 209 217 235 255 277 293 307 318 324 325 322 322 318 315 315 314 314 315 316 318 317 315 314 312 311 308 306 303 299 297 292 287 284 281 281 281 279 277 276 275 273 269
211 212 224 240 262 280 292 306 317 321 322 322 319 318 318 319 318 319 320 321 319 318 317 317 315 313 310 307 304 299 294 289 286 283 281 282 279 277 275 273 272 271 270
220 221 232 247 266 279 291 306 314 319 320 319 318 321 321 320 321 321 319 319 319 321 320 318 316 314 311 308 305 302 298 293 290 286 283 285 281 279 277 275 272 270 269
224 229 240 253 268 281 295 308 312 315 316 317 319 321 320 319 319 317 319 320 321 320 319 318 316 314 311 310 312 310 306 301 296 292 289 289 285 283 282 280 278 274 271
229 235 245 257 271 284 299 306 310 312 315 318 316 320 318 316 315 317 318 319 318 318 319 319 318 316 313 315 316 314 313 311 308 304 299 295 305 295 295 290 287 282 277
230 238 249 262 275 288 298 304 307 312 313 312 317 317 314 312 314 316 316 318 318 319 319 321 320 319 317 317 315 314 317 316 313 308 307 309 308 305 298 296 293 292 290
231 241 254 266 279 291 299 301 307 308 309 313 313 311 310 312 314 315 317 320 319 320 322 323 323 324 321 317 315 315 315 314 313 312 313 308 306 303 298 295 293 292 291
234 245 257 271 283 292 295 300 304 307 307 309 309 310 312 313 315 317 318 317 318 319 322 324 326 325 323 320 316 313 311 312 309 305 303 301 297 294 291 289 288 286 285
241 250 262 276 282 288 292 300 304 303 305 307 309 312 314 316 316 316 316 316 319 319 322 323 323 322 321 320 318 315 309 306 305 305 303 299 298 296 294 291 288 285 282
246 257 268 273 281 285 295 299 300 301 306 308 313 315 316 316 315 315 313 316 317 318 320 322 323 324 321 321 319 317 314 312 310 301 303 300 299 298 295 292 290 289 287
251 261 267 274 279 288 293 295 297 303 304 310 314 316 317 315 315 313 313 315 317 318 320 322 323 323 323 322 320 318 316 314 315 314 311 307 307 304 302 299 296 293 290
255 262 268 276 282 286 289 292 297 296 300 308 313 317 318 317 314 313 314 315 316 317 317 317 319 320 320 321 321 319 316 314 311 310 313 311 309 305 305 305 302 299 297
259 264 271 276 280 283 287 290 289 286 294 305 313 317 317 315 312 312 313 314 314 315 315 315 316 316 316 316 315 314 312 312 310 309 308 307 308 308 307 308 304 301 298
259 266 272 275 278 282 284 283 277 280 293 304 310 313 312 311 309 309 311 311 311 311 311 310 309 310 310 310 310 309 308 307 306 306 305 306 306 305 306 307 306 304 301